カタログに戻る

STARK

運用中科学SSO
NORAD 65299·PAYLOAD·🇷🇼 Rwanda

打ち上げ Aug 23, 2025 から Rocket Lab Launch Complex 1

Loading…

次のパス (今後24時間)

TLE

最新Source: Space-Track

元期: Sep 14, 2026, 05:28 UTC

1 65299U 25185C   26257.22794583  .00001552  00000-0  19693-3 0  9998
2 65299  97.9649 340.4035 0013193 153.5184 206.6706 14.83099806 57041

AllMySatでSTARKをリアルタイム追跡

Download on the App Store